[[{"header":{"parameterUnit":"m.s-1","parameterCategory":1,"la1":30.2991,"la2":30.254,"lo1":-89.0895,"lo2":-89.0444,"dy":0.0017,"dx":0.0017,"nx":28,"ny":28,"refTime":"2025-04-03T09:00:00:Z","depth":0,"parameterNumber":2,"parameterNumberName":"U-component_of_WINDS"},"data":[0,0,0,0,0,0,0,0,0,0,0,0,0,0,0,0,0,0,0,0,0,0,0,0,0,0,0,0,0,0,0,0,0,0,0,0,0,0,0,0,0,0,0,0,0,0,0,0,0,0,0,0,0,0,0,0,0,0,-5.1594,-5.1596,0,-5.1759,-5.1761,-5.1763,-5.1789,-5.1788,-5.1786,-5.1785,-5.1952,-5.1958,-5.1963,0,0,0,0,0,0,0,0,0,0,0,0,0,-5.13,-5.1305,-5.1594,-5.1596,-5.1598,-5.1759,-5.1761,-5.1763,-5.1789,-5.1788,-5.1786,-5.1784,-5.195,-5.1957,-5.1964,0,0,0,0,0,0,0,0,0,0,0,0,0,-5.1443,-5.1307,-5.1594,-5.1631,-5.1635,-5.1758,-5.1761,-5.1764,-5.179,-5.1788,-5.1785,-5.1783,-5.1948,-5.1956,-5.1965,-5.2062,0,0,-5.1991,-5.1995,0,0,0,0,0,0,0,0,-5.1434,-5.1453,-5.1623,-5.1628,-5.1634,-5.1751,-5.1719,-5.1864,-5.179,-5.1731,-5.1785,-5.1782,-5.1887,-5.19,-5.1936,-5.207,-5.2077,-5.1992,-5.1997,-5.2001,-5.2004,0,0,0,0,0,0,0,-5.1425,-5.1446,-5.1659,-5.1625,-5.1632,-5.1638,-5.1656,-5.1746,-5.1819,-5.1736,-5.1738,-5.1758,-5.1889,-5.1928,-5.194,-5.2079,-5.1992,-5.2,-5.2005,-5.2008,-5.23,-5.2303,0,0,0,0,0,0,-5.1408,-5.1438,-5.1654,-5.1664,-5.1527,-5.1645,-5.1665,-5.1716,-5.1818,-5.1832,-5.1759,-5.1758,-5.1914,-5.193,-5.1946,-5.2065,-5.2001,-5.2009,-5.2014,-5.2298,-5.2301,-5.2303,0,0,0,0,0,0,-5.1402,-5.1427,-5.1647,-5.1552,-5.158,-5.1653,-5.1709,-5.172,-5.1758,-5.1836,-5.1849,-5.1785,-5.1913,-5.1934,-5.2033,-5.2072,-5.2013,-5.2021,-5.2295,-5.2299,-5.2302,-5.2305,0,0,0,0,0,0,-5.1393,-5.1425,-5.1462,-5.1553,-5.1585,-5.1731,-5.1712,-5.1725,-5.1774,-5.1774,-5.1863,-5.1876,-5.1913,-5.202,-5.2041,-5.2082,-5.2028,-5.2291,-5.2296,-5.2301,-5.2302,-5.2308,-5.2314,0,0,0,0,0,-5.1383,-5.1456,-5.1464,-5.149,-5.1634,-5.1734,-5.1752,-5.1794,-5.1777,-5.1815,-5.1865,-5.1873,-5.2065,-5.203,-5.2054,-5.2098,-5.2289,-5.2295,-5.2301,-5.2299,-5.2307,-5.2314,0,0,0,0,0,0,-5.1368,-5.1469,-5.1479,-5.1584,-5.165,-5.1738,-5.1787,-5.1801,-5.1873,-5.187,-5.1918,-5.1938,-5.2034,-5.2077,-5.2036,-5.2198,-5.2175,-5.2186,-5.2166,-5.2174,-5.218,-5.2167,-5.2035,0,0,0,0,0,-5.1377,-5.145,-5.1534,-5.1619,-5.1652,-5.1714,-5.1759,-5.1785,-5.1855,-5.1883,-5.194,-5.2008,-5.2083,-5.2131,-5.2205,-5.2309,-5.2328,-5.2352,-5.2358,-5.2363,-5.2371,-5.2428,-5.2439,-5.2322,-5.2322,-5.2322,0,0,-5.1397,-5.1461,-5.1504,-5.1618,-5.1672,-5.1746,-5.1737,-5.1816,-5.1871,-5.1895,-5.1991,-5.2036,-5.2115,-5.2216,-5.2264,-5.2255,-5.2408,-5.237,-5.2373,-5.2379,-5.2435,-5.2446,-5.2456,-5.2326,-5.2325,-5.2325,0,0,-5.1469,-5.1526,-5.1602,-5.1657,-5.174,-5.1781,-5.1799,-5.1886,-5.1916,-5.2015,-5.2034,-5.21,-5.2229,-5.2284,-5.2329,-5.2424,-5.2434,-5.2447,-5.2478,-5.2533,-5.2543,-5.2551,-5.2583,-5.2594,-5.2455,-5.2455,-5.2455,0,-5.1482,-5.1595,-5.1639,-5.1717,-5.1766,-5.1793,-5.187,-5.1922,-5.2024,-5.2057,-5.2046,-5.2208,-5.2263,-5.2378,-5.2401,-5.2437,-5.2458,-5.2435,-5.2538,-5.2547,-5.2555,-5.2586,-5.2598,-5.2456,-5.2456,-5.2456,-5.2456,0,-5.1606,-5.1684,-5.1736,-5.1834,-5.189,-5.1967,-5.2023,-5.2074,-5.2096,-5.2138,-5.2237,-5.2304,-5.2391,-5.2421,-5.2443,-5.2539,-5.253,-5.2528,-5.2506,-5.2566,-5.2596,-5.2609,-5.2457,-5.2457,-5.2456,-5.2456,0,0,-5.1671,-5.1795,-5.1813,-5.1858,-5.1952,-5.2013,-5.2092,-5.2178,-5.222,-5.229,-5.2356,-5.2466,-5.2464,-5.2515,-5.2544,-5.2593,-5.2662,-5.2585,-5.2587,-5.2595,-5.277,-5.2769,-5.2782,-5.267,-5.2673,-5.2675,-5.2763,0,-5.1753,-5.1894,-5.1937,-5.2055,-5.2127,-5.2154,-5.2223,-5.2288,-5.2329,-5.2396,-5.2443,-5.2519,-5.2512,-5.2543,-5.2593,-5.2643,-5.2697,-5.2637,-5.2731,-5.2733,-5.2708,-5.2798,-5.2798,-5.2877,-5.2775,-5.2777,-5.2778,0,-5.1867,-5.194,-5.2065,-5.215,-5.2182,-5.2242,-5.2325,-5.2389,-5.2463,-5.249,-5.2548,-5.2573,-5.2655,-5.2631,-5.2745,-5.2703,-5.2744,-5.2775,-5.2779,-5.2787,-5.2757,-5.2807,-5.2904,-5.2915,-5.2798,-5.2796,-5.2795,0,-5.19,-5.203,-5.2121,-5.2159,-5.2261,-5.2303,-5.2347,-5.2419,-5.2468,-5.2541,-5.2573,-5.2654,-5.2697,-5.2759,-5.2805,-5.2784,-5.2915,-5.2894,-5.2938,-5.2937,-5.2962,-5.296,-5.3065,-5.2993,-5.2993,-5.2992,-5.2992,0,-5.1986,-5.206,-5.2137,-5.2193,-5.2277,-5.2327,-5.2409,-5.2455,-5.2519,-5.2584,-5.2613,-5.2673,-5.2732,-5.28,-5.2837,-5.2924,-5.2944,-5.2968,-5.2976,-5.2964,-5.296,-5.2989,-5.2984,-5.2996,-5.2995,-5.2994,-5.2994,0,-5.2035,-5.209,-5.2191,-5.228,-5.2304,-5.2362,-5.2438,-5.2493,-5.2537,-5.2618,-5.2641,-5.2709,-5.279,-5.2843,-5.2947,-5.2972,-5.3067,-5.3075,-5.3042,-5.3045,-5.3085,-5.308,-5.3211,-5.323,-5.3147,-5.3148,-5.3149,0,-5.2085,-5.2143,-5.2239,-5.2285,-5.2329,-5.2403,-5.2453,-5.2505,-5.2556,-5.2645,-5.2689,-5.2773,-5.2842,-5.2971,-5.303,-5.3109,-5.3118,-5.3159,-5.313,-5.3115,-5.3116,-5.3111,-5.3117,-5.3162,-5.3163,-5.3163,-5.3164,0,-5.2167,-5.2191,-5.2263,-5.2345,-5.2404,-5.2471,-5.2537,-5.2573,-5.2636,-5.2692,-5.2776,-5.283,-5.2936,-5.3018,-5.3104,-5.3149,-5.3166,-5.3173,-5.3187,-5.3173,-5.3151,-5.3162,-5.3052,-5.3169,-5.3168,-5.3168,-5.3168,-5.3167,-5.2217,-5.227,-5.2345,-5.2424,-5.248,-5.2542,-5.2598,-5.2649,-5.272,-5.2811,-5.2837,-5.2924,-5.2997,-5.3113,-5.3161,-5.3229,-5.3224,-5.3245,-5.325,-5.3253,-5.3253,-5.3142,-5.3245,-5.3245,-5.3245,-5.3245,-5.3245,0,-5.2299,-5.2349,-5.2422,-5.2514,-5.2576,-5.2589,-5.2664,-5.2714,-5.2791,-5.2858,-5.2926,-5.3022,-5.3102,-5.3168,-5.325,-5.3293,-5.3303,-5.3312,-5.3308,-5.3318,-5.3253,-5.3232,-5.3303,-5.3303,-5.3303,-5.3303,-5.3303,-5.3303,-5.2349,-5.2439,-5.2472,-5.2589,-5.2639,-5.2725,-5.2766,-5.2823,-5.2877,-5.2983,-5.305,-5.3093,-5.3159,-5.3247,-5.3321,-5.3338,-5.3366,-5.3374,-5.3392,-5.333,-5.3323,-5.3317,-5.3297,-5.338,-5.338,-5.3451,-5.3452,-5.3452]},{"header":{"parameterUnit":"m.s-1","parameterCategory":1,"la1":30.2991,"la2":30.254,"lo1":-89.0895,"lo2":-89.0444,"dy":0.0017,"dx":0.0017,"nx":28,"ny":28,"refTime":"2025-04-03T09:00:00:Z","depth":0,"parameterNumber":3,"parameterNumberName":"V-component_of_WINDS"},"data":[0,0,0,0,0,0,0,0,0,0,0,0,0,0,0,0,0,0,0,0,0,0,0,0,0,0,0,0,0,0,0,0,0,0,0,0,0,0,0,0,0,0,0,0,0,0,0,0,0,0,0,0,0,0,0,0,0,0,5.2293,5.2294,0,5.2391,5.2392,5.2393,5.2407,5.2406,5.2405,5.2404,5.2503,5.2506,5.2509,0,0,0,0,0,0,0,0,0,0,0,0,0,5.2119,5.2122,5.2293,5.2294,5.2295,5.239,5.2392,5.2393,5.2407,5.2406,5.2405,5.2404,5.2501,5.2506,5.251,0,0,0,0,0,0,0,0,0,0,0,0,0,5.2203,5.2123,5.2293,5.2314,5.2317,5.239,5.2392,5.2393,5.2407,5.2406,5.2405,5.2404,5.25,5.2505,5.251,5.2569,0,0,5.2526,5.2528,0,0,0,0,0,0,0,0,5.2198,5.221,5.2309,5.2312,5.2316,5.2385,5.2366,5.2452,5.2408,5.2373,5.2404,5.2403,5.2465,5.2473,5.2494,5.2573,5.2578,5.2526,5.253,5.2532,5.2533,0,0,0,0,0,0,0,5.2192,5.2205,5.2331,5.2311,5.2315,5.2319,5.2329,5.2383,5.2425,5.2376,5.2377,5.2389,5.2466,5.2489,5.2496,5.2579,5.2526,5.2531,5.2534,5.2536,5.2715,5.2717,0,0,0,0,0,0,5.2183,5.22,5.2328,5.2334,5.2253,5.2323,5.2335,5.2364,5.2424,5.2432,5.239,5.2389,5.2481,5.249,5.25,5.2575,5.2532,5.2537,5.254,5.2713,5.2715,5.2717,0,0,0,0,0,0,5.2179,5.2194,5.2324,5.2268,5.2285,5.2327,5.2361,5.2367,5.239,5.2435,5.2442,5.2405,5.248,5.2492,5.2552,5.2578,5.2539,5.2544,5.2711,5.2714,5.2716,5.2723,0,0,0,0,0,0,5.2174,5.2193,5.2215,5.2268,5.2288,5.2375,5.2362,5.237,5.2399,5.2399,5.2451,5.2459,5.248,5.2545,5.2558,5.2584,5.2548,5.2709,5.2713,5.2716,5.2721,5.2726,5.273,0,0,0,0,0,5.2168,5.2212,5.2216,5.2231,5.2317,5.2377,5.2388,5.2412,5.2401,5.2424,5.2454,5.2457,5.2573,5.2551,5.2565,5.2594,5.2708,5.2712,5.2715,5.2719,5.2725,5.273,0,0,0,0,0,0,5.2159,5.2219,5.2224,5.2287,5.2327,5.2379,5.2409,5.2417,5.246,5.2458,5.2485,5.2497,5.2556,5.2581,5.2555,5.2656,5.264,5.2646,5.2637,5.2643,5.2648,5.2641,5.2552,0,0,0,0,0,5.2165,5.2209,5.2259,5.2309,5.2329,5.2366,5.2393,5.2408,5.245,5.2467,5.25,5.2541,5.2587,5.2616,5.266,5.2725,5.2737,5.2752,5.2756,5.276,5.2765,5.2804,5.2812,5.2729,5.2729,5.2729,0,0,5.2176,5.2215,5.224,5.2309,5.2341,5.2387,5.238,5.2427,5.2462,5.2474,5.2533,5.256,5.2607,5.267,5.2699,5.2692,5.2791,5.2764,5.2767,5.2771,5.2809,5.2816,5.2823,5.2732,5.2732,5.2731,0,0,5.2221,5.2254,5.2301,5.2335,5.2385,5.241,5.2421,5.2473,5.2491,5.2552,5.2563,5.2604,5.2681,5.2715,5.2743,5.2804,5.281,5.2818,5.2841,5.2878,5.2885,5.2891,5.2915,5.2923,5.2823,5.2823,5.2823,0,5.2229,5.2299,5.2324,5.2373,5.2404,5.2418,5.2467,5.2498,5.2559,5.2581,5.2572,5.2672,5.2704,5.2777,5.2793,5.2814,5.2829,5.2812,5.2882,5.2888,5.2894,5.2917,5.2926,5.2824,5.2824,5.2824,5.2824,0,5.2308,5.2356,5.2388,5.2449,5.2483,5.2531,5.2565,5.2596,5.2609,5.2635,5.2698,5.2738,5.2792,5.281,5.2822,5.2885,5.288,5.2876,5.2861,5.2902,5.2925,5.2933,5.2825,5.2825,5.2825,5.2824,0,0,5.2349,5.2426,5.2437,5.2467,5.2524,5.2562,5.2612,5.2666,5.2694,5.2736,5.278,5.2847,5.2845,5.2876,5.2892,5.2925,5.2974,5.2918,5.2919,5.2928,5.3049,5.3053,5.3062,5.2978,5.298,5.2981,5.3046,0,5.2402,5.2492,5.2518,5.2594,5.264,5.2656,5.2699,5.274,5.2766,5.2809,5.2837,5.2885,5.2877,5.2897,5.293,5.2961,5.2999,5.2956,5.302,5.3022,5.3009,5.3074,5.3077,5.3136,5.3054,5.3056,5.3057,0,5.2476,5.2522,5.2603,5.2658,5.2678,5.2717,5.2771,5.2811,5.2858,5.2875,5.2911,5.2926,5.2979,5.2961,5.3036,5.3007,5.3034,5.3053,5.3056,5.3064,5.3042,5.3085,5.3155,5.3165,5.3071,5.3069,5.3068,0,5.2501,5.2583,5.2643,5.2668,5.2732,5.276,5.2788,5.2833,5.2865,5.2912,5.2933,5.2985,5.3013,5.3053,5.3082,5.3065,5.3155,5.3138,5.3172,5.3171,5.3191,5.3189,5.3268,5.3206,5.3205,5.3205,5.3205,0,5.2559,5.2608,5.2656,5.2693,5.275,5.2779,5.2834,5.2863,5.2904,5.2948,5.2963,5.3004,5.3038,5.3083,5.3105,5.3166,5.3178,5.3194,5.3199,5.3193,5.3192,5.3212,5.321,5.3208,5.3207,5.3207,5.3206,0,5.2596,5.263,5.2697,5.2753,5.2769,5.2808,5.2857,5.2894,5.2921,5.2976,5.2991,5.3033,5.3088,5.312,5.3188,5.3203,5.3271,5.3274,5.3255,5.3258,5.3291,5.3288,5.3387,5.3402,5.3328,5.3329,5.3329,0,5.2632,5.2671,5.2732,5.2763,5.2792,5.2841,5.2875,5.2906,5.294,5.2998,5.3029,5.3084,5.3131,5.3217,5.3254,5.3307,5.3313,5.3344,5.332,5.3314,5.3316,5.3314,5.3319,5.3348,5.3348,5.3349,5.3349,0,5.2692,5.2707,5.2755,5.281,5.285,5.2894,5.2938,5.2962,5.3001,5.3039,5.3095,5.3132,5.3203,5.3259,5.3315,5.3344,5.3354,5.3357,5.3368,5.3362,5.3351,5.336,5.3268,5.3354,5.3354,5.3353,5.3353,5.3353,5.2731,5.2768,5.2818,5.2871,5.2908,5.2949,5.2988,5.3021,5.3069,5.313,5.3145,5.3206,5.3254,5.3331,5.3362,5.341,5.3405,5.342,5.3424,5.3428,5.343,5.3343,5.342,5.342,5.342,5.342,5.342,0,5.2794,5.2828,5.2877,5.2939,5.2982,5.2988,5.3037,5.3073,5.3126,5.317,5.3217,5.3283,5.3338,5.338,5.3437,5.3467,5.3473,5.3481,5.348,5.3487,5.343,5.3416,5.3476,5.3476,5.3476,5.3475,5.3475,5.3475,5.2832,5.2895,5.2917,5.2999,5.3032,5.3092,5.312,5.3159,5.3195,5.3269,5.3315,5.3343,5.3387,5.3448,5.3499,5.351,5.3531,5.3538,5.355,5.3497,5.3491,5.3485,5.3472,5.3542,5.3542,5.3603,5.3604,5.3604]}]]